sat.trackr.live / text

‹ back to catalog

STARLINK-2224

NORAD 48573 · 2021-041W

PAYLOAD ACTIVE UNKNOWN

§ Identity

Operator
Country
US
Launch date
2021-05-15
Launch site
AFETR
Launch vehicle
Mass (kg)
RCS (m²)

Purposes: comms

External: N2YO · Heavens-Above · Gunter

§ Orbital elements

Epoch: 2026-09-19T20:22:45.165504Z

Period
94.01 min
Inclination
53.1605°
Eccentricity
0.0001222
Mean motion
15.31694843 rev/d
Perigee alt
469.9 km
Apogee alt
471.6 km
Semi-major
6,848.9 km
B*
2.4097e-5
RAAN
303.7878°
Arg perigee
88.7066°
Mean anomaly
271.4076°
Rev number
29,501

§ Raw data

STARLINK-22241 48573U 21041W   26262.84913386  .00000383  00000+0  24097-4 0  99942 48573  53.1605 303.7878 0001222  88.7066 271.4076 15.31694843295015

JSON: /api/v1/satellites/48573 · /tle

For live sub-satellite position, see the globe view (requires WebGL).

§ Visibility from observer

Set your observer location to see the next 7 days of passes ≥ 10°. The values pass through the URL so the page stays shareable.

No JS? Fill the form by hand. The geolocation button needs JavaScript.